When you browse on this site, cookies collect data to enhance your experience and personalize the content and advertising you see.
Visit our Privacy Policy to learn more. By continuing to use the site, you agree to this use of cookies and data.
  • In Switzerland
  • List of Countries
  • For 7 days
  • Water Temperature
  • Weather Map
  • Weather Widgets
  • user-avatar
    Login

    Hourly Weather Pshonkino

    Today, 18 August, Sunday

    Time Temperature Precipitation Wind Pressure Humidity
    00:00 +12°C° 0 mm 1 mps 754 mmHg 82%
    01:00 +12°C° 0 mm 1 mps 754 mmHg 85%
    02:00 +10°C° 0 mm 0 mps 754 mmHg 87%
    03:00 +11°C° 0 mm 1 mps 753 mmHg 87%
    04:00 +11°C° 0 mm 1 mps 753 mmHg 88%
    05:00 +11°C° 0 mm 1 mps 753 mmHg 88%
    06:00 +13°C° 0 mm 1 mps 753 mmHg 83%
    07:00 +15°C° 0 mm 1 mps 753 mmHg 78%
    08:00 +18°C° 0 mm 1 mps 753 mmHg 72%
    09:00 +19°C° 0 mm 1 mps 752 mmHg 68%
    10:00 +20°C° 0 mm 1 mps 752 mmHg 64%
    11:00 +22°C° 0 mm 1 mps 752 mmHg 60%
    12:00 +23°C° 0 mm 1 mps 752 mmHg 57%
    13:00 +24°C° 0 mm 1 mps 752 mmHg 54%
    14:00 +23°C° 0 mm 0 mps 752 mmHg 51%
    15:00 +22°C° 0 mm 0 mps 752 mmHg 53%
    16:00 +22°C° 0 mm 0 mps 752 mmHg 55%
    17:00 +21°C° 0 mm 0 mps 752 mmHg 57%
    18:00 +19°C° 0 mm 0 mps 752 mmHg 64%
    19:00 +17°C° 0 mm 0 mps 752 mmHg 72%
    20:00 +15°C° 0 mm 0 mps 752 mmHg 79%
    21:00 +16°C° 0 mm 1 mps 752 mmHg 81%
    22:00 +15°C° 0 mm 1 mps 752 mmHg 83%
    23:00 +15°C° 0 mm 1 mps 752 mmHg 86%

    Tomorrow, 19 August, Monday

    Time Temperature Precipitation Wind Pressure Humidity
    00:00 +14°C° 0 mm 2 mps 752 mmHg 87%
    01:00 +14°C° 0 mm 2 mps 752 mmHg 88%
    02:00 +14°C° 0 mm 2 mps 752 mmHg 90%
    03:00 +14°C° 0 mm 2 mps 751 mmHg 88%
    04:00 +14°C° 0 mm 2 mps 751 mmHg 86%
    05:00 +13°C° 0 mm 3 mps 751 mmHg 84%
    06:00 +16°C° 0 mm 3 mps 751 mmHg 81%
    07:00 +17°C° 0 mm 3 mps 751 mmHg 78%
    08:00 +19°C° 0 mm 4 mps 751 mmHg 75%
    09:00 +20°C° 0 mm 4 mps 751 mmHg 74%
    10:00 +20°C° 0 mm 4 mps 751 mmHg 74%
    11:00 +21°C° 0 mm 4 mps 751 mmHg 73%
    12:00 +21°C° 0.1 mm 3 mps 751 mmHg 76%
    13:00 +21°C° 0.1 mm 3 mps 751 mmHg 79%
    14:00 +21°C° 0.1 mm 3 mps 751 mmHg 81%
    15:00 +23°C° 0.1 mm 2 mps 752 mmHg 81%
    16:00 +23°C° 0.1 mm 2 mps 752 mmHg 81%
    17:00 +24°C° 0.1 mm 2 mps 752 mmHg 81%
    18:00 +23°C° 0.3 mm 2 mps 752 mmHg 86%
    19:00 +20°C° 0.3 mm 2 mps 752 mmHg 91%
    20:00 +19°C° 0.3 mm 2 mps 753 mmHg 95%
    21:00 +18°C° 0 mm 2 mps 753 mmHg 96%
    22:00 +18°C° 0 mm 2 mps 754 mmHg 96%
    23:00 +18°C° 0 mm 1 mps 754 mmHg 97%

    Day after tomorrow, 20 August, Tuesday

    Time Temperature Precipitation Wind Pressure Humidity
    00:00 +18°C° 0 mm 1 mps 754 mmHg 96%
    01:00 +16°C° 0 mm 1 mps 755 mmHg 95%
    02:00 +14°C° 0 mm 0 mps 755 mmHg 94%
    03:00 +14°C° 0 mm 0 mps 756 mmHg 93%
    04:00 +14°C° 0 mm 0 mps 756 mmHg 92%
    05:00 +14°C° 0 mm 0 mps 756 mmHg 91%
    06:00 +16°C° 0 mm 1 mps 756 mmHg 88%
    07:00 +18°C° 0 mm 1 mps 757 mmHg 84%
    08:00 +20°C° 0 mm 1 mps 757 mmHg 81%
    09:00 +21°C° 0.1 mm 1 mps 757 mmHg 74%
    10:00 +23°C° 0.1 mm 1 mps 757 mmHg 68%
    11:00 +24°C° 0.1 mm 1 mps 757 mmHg 61%
    12:00 +24°C° 0.4 mm 1 mps 757 mmHg 64%
    13:00 +24°C° 0.4 mm 2 mps 758 mmHg 67%
    14:00 +24°C° 0.4 mm 2 mps 758 mmHg 69%
    15:00 +24°C° 0.2 mm 1 mps 758 mmHg 71%
    16:00 +24°C° 0.2 mm 1 mps 757 mmHg 73%
    17:00 +24°C° 0.2 mm 1 mps 757 mmHg 74%
    18:00 +22°C° 0 mm 1 mps 758 mmHg 78%
    19:00 +20°C° 0 mm 1 mps 758 mmHg 82%
    20:00 +18°C° 0 mm 1 mps 758 mmHg 86%
    21:00 +18°C° 0 mm 1 mps 758 mmHg 86%
    22:00 +16°C° 0 mm 1 mps 759 mmHg 87%
    23:00 +16°C° 0 mm 1 mps 759 mmHg 87%

    21 August, Wednesday

    Time Temperature Precipitation Wind Pressure Humidity
    00:00 +15°C° 0 mm 1 mps 759 mmHg 87%
    01:00 +14°C° 0 mm 0 mps 759 mmHg 87%
    02:00 +13°C° 0 mm 0 mps 759 mmHg 88%
    03:00 +13°C° 0 mm 0 mps 759 mmHg 88%
    04:00 +14°C° 0 mm 1 mps 759 mmHg 89%
    05:00 +14°C° 0 mm 1 mps 759 mmHg 90%
    06:00 +15°C° 0 mm 1 mps 759 mmHg 87%
    07:00 +18°C° 0 mm 1 mps 760 mmHg 84%
    08:00 +20°C° 0 mm 1 mps 760 mmHg 82%
    09:00 +21°C° 0 mm 1 mps 759 mmHg 77%
    10:00 +22°C° 0 mm 1 mps 759 mmHg 71%
    11:00 +23°C° 0 mm 1 mps 759 mmHg 66%
    12:00 +22°C° 0.9 mm 1 mps 759 mmHg 74%
    13:00 +20°C° 0.9 mm 2 mps 759 mmHg 81%
    14:00 +19°C° 0.9 mm 2 mps 759 mmHg 88%
    15:00 +18°C° 0.8 mm 2 mps 759 mmHg 90%
    16:00 +18°C° 0.8 mm 1 mps 758 mmHg 93%
    17:00 +18°C° 0.8 mm 1 mps 758 mmHg 95%
    18:00 +16°C° 1 mm 1 mps 758 mmHg 96%
    19:00 +15°C° 1 mm 1 mps 758 mmHg 96%
    20:00 +15°C° 1 mm 1 mps 758 mmHg 97%
    21:00 +15°C° 0.3 mm 1 mps 758 mmHg 97%
    22:00 +15°C° 0.3 mm 1 mps 758 mmHg 97%
    23:00 +15°C° 0.3 mm 1 mps 758 mmHg 97%

    22 August, Thursday

    Time Temperature Precipitation Wind Pressure Humidity
    00:00 +14°C° 0 mm 1 mps 758 mmHg 97%
    01:00 +14°C° 0 mm 1 mps 759 mmHg 97%
    02:00 +14°C° 0 mm 2 mps 759 mmHg 96%
    03:00 +13°C° 0 mm 2 mps 759 mmHg 97%
    04:00 +12°C° 0 mm 2 mps 759 mmHg 97%
    05:00 +10°C° 0 mm 2 mps 759 mmHg 97%
    06:00 +12°C° 0 mm 2 mps 759 mmHg 95%
    07:00 +14°C° 0 mm 2 mps 760 mmHg 93%
    08:00 +15°C° 0 mm 2 mps 760 mmHg 91%
    09:00 +16°C° 0 mm 2 mps 760 mmHg 81%
    10:00 +18°C° 0 mm 2 mps 760 mmHg 71%
    11:00 +19°C° 0 mm 3 mps 760 mmHg 62%
    12:00 +20°C° 0 mm 3 mps 760 mmHg 60%
    13:00 +20°C° 0 mm 3 mps 760 mmHg 57%
    14:00 +21°C° 0 mm 3 mps 760 mmHg 55%
    15:00 +21°C° 0 mm 2 mps 760 mmHg 58%
    16:00 +20°C° 0 mm 2 mps 760 mmHg 61%
    17:00 +20°C° 0 mm 2 mps 760 mmHg 64%
    18:00 +19°C° 0 mm 1 mps 760 mmHg 71%
    19:00 +16°C° 0 mm 1 mps 760 mmHg 78%
    20:00 +15°C° 0 mm 1 mps 760 mmHg 84%
    21:00 +14°C° 0 mm 1 mps 760 mmHg 86%
    22:00 +13°C° 0 mm 1 mps 760 mmHg 89%
    23:00 +12°C° 0 mm 1 mps 760 mmHg 91%

    23 August, Friday

    Time Temperature Precipitation Wind Pressure Humidity
    00:00 +12°C° 0 mm 1 mps 760 mmHg 91%
    01:00 +12°C° 0 mm 1 mps 761 mmHg 91%
    02:00 +11°C° 0 mm 1 mps 761 mmHg 91%
    03:00 +11°C° 0 mm 1 mps 761 mmHg 91%
    04:00 +11°C° 0 mm 1 mps 760 mmHg 90%
    05:00 +11°C° 0 mm 1 mps 760 mmHg 90%
    06:00 +12°C° 0 mm 1 mps 760 mmHg 85%
    07:00 +14°C° 0 mm 1 mps 760 mmHg 81%
    08:00 +15°C° 0 mm 1 mps 760 mmHg 76%
    09:00 +16°C° 0 mm 2 mps 760 mmHg 72%
    10:00 +17°C° 0 mm 2 mps 760 mmHg 68%
    11:00 +18°C° 0 mm 2 mps 760 mmHg 63%
    12:00 +18°C° 0 mm 3 mps 760 mmHg 64%
    13:00 +18°C° 0 mm 3 mps 760 mmHg 64%
    14:00 +18°C° 0 mm 4 mps 760 mmHg 65%
    15:00 +17°C° 0.1 mm 3 mps 759 mmHg 72%
    16:00 +16°C° 0.1 mm 3 mps 759 mmHg 80%
    17:00 +15°C° 0.1 mm 2 mps 759 mmHg 87%
    18:00 +14°C° 0 mm 2 mps 759 mmHg 90%
    19:00 +14°C° 0 mm 2 mps 759 mmHg 93%
    20:00 +13°C° 0 mm 2 mps 759 mmHg 96%
    21:00 +13°C° 0 mm 2 mps 759 mmHg 96%
    22:00 +12°C° 0 mm 2 mps 760 mmHg 97%
    23:00 +12°C° 0 mm 2 mps 760 mmHg 97%
    Show more